Regional Weather Roundup
Issued by NWS Charleston, WV

Home | Current Version | Previous Version | Graphics & Text | Print | Product List | Glossary On
Versions: 1 2 3 4 5 6 7 8 9 10 11 12 13 14 15 16 17 18 19 20 21 22 23 24 25 26 27 28 29 30 31 32 33 34 35 36 37 38 39 40 41 42 43 44 45 46 47 48 49 50
000
ASUS41 KRLX 031110
RWRRLX
West Virginia Regional Weather Roundup
National Weather Service Charleston WV
700 AM EDT FRI JUL 03 2015

Note: "fair" indicates few or no clouds below 12,000 feet with no
significant weather and/or obstructions to visibility.

WVZ003-031200-
Northern Panhandle of West Virginia

CITY           SKY/WX    TMP DP  RH WIND       PRES   REMARKS
WHEELING       CLEAR     56  53  90 CALM      29.97S
$$

WVZ009-031200-
Northwest West Virginia

CITY           SKY/WX    TMP DP  RH WIND       PRES   REMARKS
PARKERSBURG    MOCLDY    64  60  87 NE3       29.96R
$$

WVZ006-031200-
Western West Virginia

CITY           SKY/WX    TMP DP  RH WIND       PRES   REMARKS
HUNTINGTON     CLOUDY    66  64  93 E3        29.89R FOG
$$

WVZ015-031200-
West Central West Virginia

CITY           SKY/WX    TMP DP  RH WIND       PRES   REMARKS
CHARLESTON     CLOUDY    66  63  90 CALM      29.91R FOG
$$

WVZ022-031-031200-
North Central West Virginia

CITY           SKY/WX    TMP DP  RH WIND       PRES   REMARKS
CLARKSBURG     MOCLDY    59  58  96 N3        29.96R
MORGANTOWN     PTSUNNY   60  54  80 NE3       29.98R
$$

WVZ025-035-042-045-031200-
Southern West Virginia

CITY           SKY/WX    TMP DP  RH WIND       PRES   REMARKS
BECKLEY        CLOUDY    64  61  90 SE10      29.98R FOG
LOGAN          CLOUDY    68  66  94 CALM      29.89R
BLUEFIELD      LGT RAIN  66  62  87 E5        30.00R FOG
LEWISBURG      CLOUDY    64  62  91 NE5       30.00R FOG
$$

WVZ047-031200-
Northern Mountains of West Virginia

CITY           SKY/WX    TMP DP  RH WIND       PRES   REMARKS
ELKINS         CLOUDY    59  57  93 CALM      30.01R FOG
$$

WVZ052-031200-
Eastern Panhandle of West Virginia

CITY           SKY/WX    TMP DP  RH WIND       PRES   REMARKS
MARTINSBURG    FOG       64  62  93 CALM      29.98R VSB<1/4
PETERSBURG     PTSUNNY   55  53  92 CALM      30.00R FOG
$$


USA.gov is the U.S. government's official web portal to all federal, state and local government web resources and services.